QFA6101 YSSY-YMML

Flight info

Callsign QFA6101
Flight time 1h 13m
Altitude 38000
Route TESAT H65 LEECE Q29 ML
Aircraft A388/J-SADE2E3FGHIJ3J4J5M1RWXY/LB1D1

Departure

Time 2026-05-07 20:31
Airport Sydney Kingsford Smith International Airport (YSSY)

Arrival

Time 2026-05-07 21:44
Airport Melbourne Airport (YMML)
Time Latitude Longitude Altitude Speed Heading
2026-05-07 20:26 -33.94643 151.17399 35 ft 24 kts 167°
2026-05-07 20:26 -33.94810 151.17441 35 ft 25 kts 168°
2026-05-07 20:27 -33.94985 151.17485 35 ft 26 kts 168°
2026-05-07 20:27 -33.95166 151.17530 34 ft 27 kts 167°
2026-05-07 20:27 -33.95348 151.17578 34 ft 27 kts 167°
2026-05-07 20:27 -33.95534 151.17628 35 ft 28 kts 167°
2026-05-07 20:28 -33.95722 151.17680 35 ft 28 kts 167°
2026-05-07 20:28 -33.95912 151.17727 35 ft 28 kts 168°
2026-05-07 20:28 -33.96104 151.17775 35 ft 28 kts 168°
2026-05-07 20:28 -33.96181 151.17795 35 ft 10 kts 167°
2026-05-07 20:29 -33.96264 151.17818 35 ft 14 kts 167°
2026-05-07 20:29 -33.96365 151.17846 35 ft 9 kts 167°
2026-05-07 20:29 -33.96424 151.17888 35 ft 11 kts 120°
2026-05-07 20:29 -33.96426 151.17986 35 ft 14 kts 68°
2026-05-07 20:30 -33.96358 151.18042 35 ft 12 kts
2026-05-07 20:30 -33.96135 151.17987 32 ft 73 kts 347°
2026-05-07 20:30 -33.95409 151.17795 34 ft 136 kts 349°
2026-05-07 20:30 -33.94377 151.17555 225 ft 158 kts 345°
2026-05-07 20:31 -33.93367 151.17100 739 ft 155 kts 316°
2026-05-07 20:31 -33.92735 151.16086 1244 ft 152 kts 291°
2026-05-07 20:31 -33.92276 151.14895 1545 ft 167 kts 289°
2026-05-07 20:31 -33.91744 151.13565 1789 ft 187 kts 292°
2026-05-07 20:32 -33.91066 151.12099 2214 ft 211 kts 295°
2026-05-07 20:32 -33.90252 151.10504 2660 ft 236 kts 297°
2026-05-07 20:32 -33.89520 151.08699 3238 ft 244 kts 277°
2026-05-07 20:32 -33.89597 151.06680 4015 ft 243 kts 248°
2026-05-07 20:33 -33.90512 151.04987 4847 ft 246 kts 219°
2026-05-07 20:33 -33.92029 151.04076 5749 ft 247 kts 191°
2026-05-07 20:33 -33.93725 151.04187 6670 ft 253 kts 168°
2026-05-07 20:33 -33.95452 151.04532 7489 ft 252 kts 187°
2026-05-07 20:34 -33.97129 151.03972 8386 ft 250 kts 205°
2026-05-07 20:34 -33.98698 151.03066 9308 ft 251 kts 208°
2026-05-07 20:34 -34.00281 151.02172 10209 ft 253 kts 206°
2026-05-07 20:34 -34.01964 151.01329 10621 ft 272 kts 204°
2026-05-07 20:35 -34.03814 151.00500 10818 ft 295 kts 202°
2026-05-07 20:35 -34.05797 150.99673 11331 ft 305 kts 202°
2026-05-07 20:35 -34.07805 150.98860 12116 ft 306 kts 202°
2026-05-07 20:35 -34.09830 150.98039 12858 ft 309 kts 202°
2026-05-07 20:36 -34.11846 150.97218 13613 ft 311 kts 202°
2026-05-07 20:36 -34.13889 150.96383 14316 ft 313 kts 203°
2026-05-07 20:36 -34.15980 150.95525 14954 ft 317 kts 203°
2026-05-07 20:36 -34.18073 150.94666 15587 ft 320 kts 203°
2026-05-07 20:37 -34.20196 150.93794 16237 ft 323 kts 204°
2026-05-07 20:37 -34.22335 150.92914 16853 ft 326 kts 204°
2026-05-07 20:37 -34.24494 150.92026 17459 ft 330 kts 204°
2026-05-07 20:37 -34.26675 150.91128 18086 ft 333 kts 204°
2026-05-07 20:38 -34.28851 150.90232 18650 ft 336 kts 204°
2026-05-07 20:38 -34.31070 150.89319 19220 ft 337 kts 204°
2026-05-07 20:38 -34.33295 150.88403 19796 ft 339 kts 205°
2026-05-07 20:38 -34.35531 150.87482 20355 ft 340 kts 205°
2026-05-07 20:39 -34.37783 150.86553 20906 ft 342 kts 205°
2026-05-07 20:39 -34.40039 150.85621 21451 ft 344 kts 205°
2026-05-07 20:39 -34.42314 150.84681 21991 ft 346 kts 205°
2026-05-07 20:39 -34.44596 150.83738 22534 ft 348 kts 205°
2026-05-07 20:40 -34.46868 150.82797 23048 ft 350 kts 205°
2026-05-07 20:40 -34.49180 150.81840 23579 ft 352 kts 205°
2026-05-07 20:40 -34.51495 150.80881 24017 ft 355 kts 205°
2026-05-07 20:40 -34.53781 150.79747 24410 ft 352 kts 213°
2026-05-07 20:41 -34.55819 150.78131 24825 ft 349 kts 223°
2026-05-07 20:41 -34.57569 150.76096 25241 ft 349 kts 231°
2026-05-07 20:41 -34.59028 150.73737 25665 ft 351 kts 235°
2026-05-07 20:41 -34.60465 150.71328 26110 ft 354 kts 235°
2026-05-07 20:42 -34.61933 150.68905 26540 ft 357 kts 234°
2026-05-07 20:42 -34.63392 150.66499 27004 ft 361 kts 234°
2026-05-07 20:42 -34.64885 150.64030 27505 ft 364 kts 234°
2026-05-07 20:42 -34.66386 150.61540 27993 ft 367 kts 234°
2026-05-07 20:43 -34.67901 150.59022 28497 ft 371 kts 234°
2026-05-07 20:43 -34.69427 150.56484 29022 ft 374 kts 234°
2026-05-07 20:43 -34.70964 150.53924 29540 ft 377 kts 234°
2026-05-07 20:43 -34.72515 150.51338 30056 ft 381 kts 234°
2026-05-07 20:44 -34.74082 150.48724 30535 ft 383 kts 234°
2026-05-07 20:44 -34.75633 150.46134 31033 ft 385 kts 234°
2026-05-07 20:44 -34.77214 150.43494 31498 ft 387 kts 235°
2026-05-07 20:44 -34.78799 150.40844 31977 ft 389 kts 235°
2026-05-07 20:45 -34.80399 150.38166 32437 ft 392 kts 236°
2026-05-07 20:45 -34.82006 150.35475 32907 ft 394 kts 236°
2026-05-07 20:45 -34.83618 150.32775 33345 ft 397 kts 236°
2026-05-07 20:45 -34.85246 150.30044 33818 ft 399 kts 237°
2026-05-07 20:46 -34.86879 150.27304 34236 ft 402 kts 237°
2026-05-07 20:46 -34.88507 150.24568 34554 ft 406 kts 237°
2026-05-07 20:46 -34.90170 150.21773 34855 ft 411 kts 237°
2026-05-07 20:46 -34.91854 150.18941 35254 ft 412 kts 237°
2026-05-07 20:47 -34.93538 150.16108 35684 ft 414 kts 237°
2026-05-07 20:47 -34.95229 150.13261 36118 ft 415 kts 237°
2026-05-07 20:47 -34.96916 150.10417 36574 ft 415 kts 237°
2026-05-07 20:47 -34.98613 150.07554 37024 ft 416 kts 237°
2026-05-07 20:48 -35.00307 150.04695 37469 ft 416 kts 237°
2026-05-07 20:48 -35.02003 150.01828 37915 ft 417 kts 237°
2026-05-07 20:48 -35.03701 149.98954 38177 ft 421 kts 237°
2026-05-07 20:49 -35.07086 149.93223 38164 ft 416 kts 236°
2026-05-07 20:49 -35.10462 149.87492 38170 ft 416 kts 236°
2026-05-07 20:50 -35.13833 149.81766 38171 ft 414 kts 236°
2026-05-07 20:50 -35.17165 149.76096 38162 ft 413 kts 236°
2026-05-07 20:51 -35.20503 149.70405 38160 ft 411 kts 236°
2026-05-07 20:51 -35.23825 149.64732 38156 ft 410 kts 236°
2026-05-07 20:52 -35.27137 149.59068 38145 ft 409 kts 236°
2026-05-07 20:52 -35.30441 149.53409 38125 ft 409 kts 235°
2026-05-07 20:53 -35.33725 149.47773 38106 ft 409 kts 235°
2026-05-07 20:53 -35.37027 149.42098 38158 ft 412 kts 235°
2026-05-07 20:54 -35.40381 149.36324 38141 ft 417 kts 235°
2026-05-07 20:54 -35.43751 149.30515 38141 ft 419 kts 235°
2026-05-07 20:55 -35.47104 149.24723 38142 ft 419 kts 235°
2026-05-07 20:55 -35.50475 149.18892 38148 ft 420 kts 235°
2026-05-07 20:56 -35.53858 149.13030 38151 ft 421 kts 235°
2026-05-07 20:56 -35.57239 149.07160 38156 ft 421 kts 235°
2026-05-07 20:57 -35.60595 149.01325 38166 ft 421 kts 235°
2026-05-07 20:57 -35.63979 148.95430 38167 ft 422 kts 235°
2026-05-07 20:58 -35.67362 148.89529 38174 ft 422 kts 235°
2026-05-07 20:58 -35.70738 148.83628 38170 ft 423 kts 235°
2026-05-07 20:59 -35.74104 148.77736 38169 ft 423 kts 235°
2026-05-07 20:59 -35.77486 148.71806 38179 ft 423 kts 235°
2026-05-07 21:00 -35.80865 148.65871 38175 ft 423 kts 235°
2026-05-07 21:00 -35.84241 148.59930 38189 ft 423 kts 235°
2026-05-07 21:01 -35.87621 148.53975 38194 ft 424 kts 235°
2026-05-07 21:01 -35.90967 148.48053 38189 ft 424 kts 235°
2026-05-07 21:02 -35.94337 148.42065 38200 ft 425 kts 235°
2026-05-07 21:02 -35.97705 148.36071 38204 ft 426 kts 235°
2026-05-07 21:03 -36.01080 148.30058 38202 ft 426 kts 235°
2026-05-07 21:03 -36.04440 148.24061 38211 ft 427 kts 235°
2026-05-07 21:04 -36.07816 148.18023 38217 ft 428 kts 234°
2026-05-07 21:04 -36.11197 148.11969 38228 ft 428 kts 234°
2026-05-07 21:05 -36.14587 148.05903 38230 ft 429 kts 234°
2026-05-07 21:05 -36.17959 147.99873 38236 ft 429 kts 234°
2026-05-07 21:06 -36.21353 147.93790 38235 ft 430 kts 234°
2026-05-07 21:06 -36.24746 147.87696 38237 ft 430 kts 234°
2026-05-07 21:07 -36.28136 147.81598 38240 ft 430 kts 234°
2026-05-07 21:07 -36.31523 147.75493 38229 ft 430 kts 234°
2026-05-07 21:08 -36.34887 147.69413 38230 ft 430 kts 234°
2026-05-07 21:08 -36.38266 147.63285 38229 ft 430 kts 234°
2026-05-07 21:09 -36.41638 147.57159 38233 ft 430 kts 234°
2026-05-07 21:09 -36.45011 147.51021 38231 ft 430 kts 234°
2026-05-07 21:10 -36.48358 147.44922 38227 ft 430 kts 234°
2026-05-07 21:10 -36.51723 147.38775 38226 ft 430 kts 234°
2026-05-07 21:11 -36.55087 147.32621 38227 ft 430 kts 234°
2026-05-07 21:11 -36.60131 147.23370 38227 ft 431 kts 234°
2026-05-07 21:12 -36.63491 147.17195 38215 ft 431 kts 234°
2026-05-07 21:12 -36.66831 147.11048 38082 ft 429 kts 234°
2026-05-07 21:13 -36.68489 147.07989 37670 ft 425 kts 234°
2026-05-07 21:13 -36.70149 147.04925 36908 ft 427 kts 234°
2026-05-07 21:13 -36.71820 147.01840 35932 ft 432 kts 234°
2026-05-07 21:13 -36.73503 146.98731 35194 ft 432 kts 234°
2026-05-07 21:14 -36.75180 146.95626 34473 ft 431 kts 234°
2026-05-07 21:14 -36.76824 146.92580 33926 ft 426 kts 234°
2026-05-07 21:14 -36.78460 146.89547 33448 ft 419 kts 234°
2026-05-07 21:14 -36.80066 146.86564 32966 ft 412 kts 234°
2026-05-07 21:15 -36.81656 146.83609 32459 ft 407 kts 234°
2026-05-07 21:15 -36.83227 146.80690 31969 ft 401 kts 234°
2026-05-07 21:15 -36.84773 146.77814 31485 ft 397 kts 234°
2026-05-07 21:15 -36.86297 146.74977 31007 ft 392 kts 233°
2026-05-07 21:16 -36.87807 146.72163 30529 ft 388 kts 233°
2026-05-07 21:16 -36.89301 146.69375 30030 ft 384 kts 233°
2026-05-07 21:16 -36.90756 146.66658 29559 ft 378 kts 233°
2026-05-07 21:16 -36.92204 146.63953 29123 ft 372 kts 233°
2026-05-07 21:17 -36.93634 146.61279 28669 ft 367 kts 233°
2026-05-07 21:17 -36.95043 146.58644 28227 ft 362 kts 233°
2026-05-07 21:17 -36.96434 146.56038 27804 ft 358 kts 233°
2026-05-07 21:17 -36.97809 146.53462 27363 ft 354 kts 233°
2026-05-07 21:18 -36.99163 146.50920 26933 ft 349 kts 233°
2026-05-07 21:18 -37.00504 146.48402 26512 ft 346 kts 233°
2026-05-07 21:18 -37.01813 146.45946 26095 ft 343 kts 233°
2026-05-07 21:18 -37.03130 146.43473 25678 ft 339 kts 233°
2026-05-07 21:19 -37.04431 146.41026 25256 ft 337 kts 233°
2026-05-07 21:19 -37.05726 146.38592 24834 ft 335 kts 233°
2026-05-07 21:19 -37.07016 146.36165 24427 ft 333 kts 233°
2026-05-07 21:19 -37.08290 146.33761 24012 ft 331 kts 233°
2026-05-07 21:20 -37.09559 146.31364 23559 ft 329 kts 233°
2026-05-07 21:20 -37.10822 146.28978 23131 ft 327 kts 233°
2026-05-07 21:20 -37.12071 146.26619 22730 ft 324 kts 233°
2026-05-07 21:20 -37.13310 146.24276 22315 ft 321 kts 233°
2026-05-07 21:21 -37.14523 146.21981 21917 ft 319 kts 233°
2026-05-07 21:21 -37.15744 146.19669 21521 ft 317 kts 233°
2026-05-07 21:21 -37.16959 146.17369 21108 ft 315 kts 233°
2026-05-07 21:21 -37.18165 146.15082 20699 ft 313 kts 233°
2026-05-07 21:22 -37.19360 146.12815 20280 ft 311 kts 233°
2026-05-07 21:22 -37.20551 146.10555 19896 ft 310 kts 233°
2026-05-07 21:22 -37.21733 146.08310 19493 ft 307 kts 233°
2026-05-07 21:22 -37.22906 146.06079 19103 ft 305 kts 233°
2026-05-07 21:23 -37.24058 146.03886 18707 ft 304 kts 233°
2026-05-07 21:23 -37.25216 146.01680 18280 ft 302 kts 233°
2026-05-07 21:23 -37.26369 145.99485 17880 ft 299 kts 233°
2026-05-07 21:23 -37.27509 145.97311 17488 ft 297 kts 233°
2026-05-07 21:24 -37.28641 145.95153 17101 ft 295 kts 233°
2026-05-07 21:24 -37.29766 145.93010 16717 ft 293 kts 233°
2026-05-07 21:24 -37.30883 145.90877 16324 ft 291 kts 233°
2026-05-07 21:24 -37.31994 145.88765 15942 ft 289 kts 233°
2026-05-07 21:25 -37.33106 145.86650 15562 ft 289 kts 233°
2026-05-07 21:25 -37.34197 145.84572 15190 ft 287 kts 233°
2026-05-07 21:25 -37.35289 145.82490 14814 ft 285 kts 233°
2026-05-07 21:25 -37.36380 145.80408 14430 ft 284 kts 233°
2026-05-07 21:26 -37.37464 145.78339 14053 ft 283 kts 232°
2026-05-07 21:26 -37.38540 145.76282 13662 ft 281 kts 233°
2026-05-07 21:26 -37.39609 145.74238 13303 ft 278 kts 232°
2026-05-07 21:26 -37.40667 145.72215 12935 ft 277 kts 232°
2026-05-07 21:27 -37.41725 145.70190 12571 ft 276 kts 232°
2026-05-07 21:27 -37.42764 145.68204 12216 ft 274 kts 232°
2026-05-07 21:27 -37.43806 145.66201 11860 ft 274 kts 234°
2026-05-07 21:27 -37.44632 145.64019 11500 ft 280 kts 246°
2026-05-07 21:28 -37.45030 145.61598 11121 ft 287 kts 258°
2026-05-07 21:28 -37.45026 145.59069 10752 ft 291 kts 264°
2026-05-07 21:28 -37.44978 145.56549 10581 ft 282 kts 263°
2026-05-07 21:28 -37.44945 145.54136 10380 ft 272 kts 262°
2026-05-07 21:29 -37.44922 145.51763 10085 ft 270 kts 262°
2026-05-07 21:29 -37.44902 145.49404 9887 ft 268 kts 262°
2026-05-07 21:29 -37.44879 145.47114 9742 ft 264 kts 262°
2026-05-07 21:29 -37.44855 145.44800 9604 ft 266 kts 263°
2026-05-07 21:30 -37.44832 145.42469 9352 ft 268 kts 263°
2026-05-07 21:30 -37.44805 145.40141 9075 ft 264 kts 263°
2026-05-07 21:30 -37.44777 145.37851 8815 ft 259 kts 263°
2026-05-07 21:30 -37.44751 145.35608 8558 ft 254 kts 263°
2026-05-07 21:31 -37.44722 145.33410 8303 ft 249 kts 263°
2026-05-07 21:31 -37.44694 145.31319 8066 ft 244 kts 263°
2026-05-07 21:31 -37.44665 145.29230 7820 ft 240 kts 263°
2026-05-07 21:31 -37.44637 145.27152 7563 ft 236 kts 263°
2026-05-07 21:32 -37.44611 145.25086 7325 ft 236 kts 263°
2026-05-07 21:32 -37.44585 145.23034 7083 ft 234 kts 263°
2026-05-07 21:32 -37.44558 145.20989 6836 ft 233 kts 264°
2026-05-07 21:32 -37.44532 145.18937 6589 ft 235 kts 264°
2026-05-07 21:33 -37.44504 145.16885 6335 ft 235 kts 264°
2026-05-07 21:33 -37.44471 145.14834 6074 ft 233 kts 264°
2026-05-07 21:33 -37.44438 145.12808 5829 ft 232 kts 264°
2026-05-07 21:33 -37.44408 145.10786 5574 ft 231 kts 264°
2026-05-07 21:34 -37.44379 145.08806 5336 ft 228 kts 264°
2026-05-07 21:34 -37.44352 145.06821 5093 ft 226 kts 264°
2026-05-07 21:34 -37.44326 145.04825 5003 ft 227 kts 263°
2026-05-07 21:34 -37.44295 145.02882 5012 ft 217 kts 264°
2026-05-07 21:35 -37.44261 145.01039 5006 ft 205 kts 263°
2026-05-07 21:35 -37.44229 144.99299 4973 ft 195 kts 263°
2026-05-07 21:35 -37.44204 144.97616 4806 ft 190 kts 262°
2026-05-07 21:35 -37.44184 144.95953 4579 ft 190 kts 262°
2026-05-07 21:36 -37.44181 144.94297 4339 ft 188 kts 257°
2026-05-07 21:36 -37.44381 144.92744 4284 ft 174 kts 251°
2026-05-07 21:36 -37.44588 144.91329 4134 ft 159 kts 252°
2026-05-07 21:36 -37.44784 144.89947 3612 ft 162 kts 252°
2026-05-07 21:37 -37.44985 144.88562 3303 ft 160 kts 252°
2026-05-07 21:37 -37.45173 144.87183 3222 ft 161 kts 252°
2026-05-07 21:37 -37.45368 144.85801 3138 ft 161 kts 252°
2026-05-07 21:37 -37.45568 144.84418 3018 ft 160 kts 253°
2026-05-07 21:38 -37.45766 144.83040 3022 ft 160 kts 253°
2026-05-07 21:38 -37.46055 144.81689 3018 ft 158 kts 236°
2026-05-07 21:38 -37.46836 144.80754 3023 ft 158 kts 208°
2026-05-07 21:38 -37.47901 144.80428 3029 ft 160 kts 189°
2026-05-07 21:39 -37.49005 144.80475 3022 ft 163 kts 182°
2026-05-07 21:39 -37.50106 144.80658 3030 ft 157 kts 180°
2026-05-07 21:39 -37.51164 144.80855 3022 ft 150 kts 180°
2026-05-07 21:39 -37.52195 144.81043 3022 ft 151 kts 180°
2026-05-07 21:40 -37.53243 144.81237 2918 ft 153 kts 180°
2026-05-07 21:40 -37.54283 144.81434 2715 ft 146 kts 180°
2026-05-07 21:40 -37.55254 144.81618 2510 ft 138 kts 181°
2026-05-07 21:40 -37.56190 144.81788 2332 ft 137 kts 181°
2026-05-07 21:41 -37.57120 144.81962 2146 ft 136 kts 182°
2026-05-07 21:41 -37.58057 144.82140 1957 ft 137 kts 182°
2026-05-07 21:41 -37.58991 144.82315 1779 ft 134 kts 181°
2026-05-07 21:41 -37.59924 144.82479 1582 ft 139 kts 180°
2026-05-07 21:42 -37.60898 144.82661 1397 ft 143 kts 176°
2026-05-07 21:42 -37.61864 144.82858 1185 ft 141 kts 178°
2026-05-07 21:42 -37.62820 144.83035 992 ft 140 kts 179°
2026-05-07 21:42 -37.63770 144.83204 808 ft 137 kts 176°
2026-05-07 21:43 -37.64721 144.83388 614 ft 140 kts 179°
2026-05-07 21:43 -37.65670 144.83565 455 ft 137 kts 178°
2026-05-07 21:43 -37.66507 144.83704 407 ft 102 kts 174°
2026-05-07 21:43 -37.67085 144.83808 388 ft 58 kts 169°
2026-05-07 21:44 -37.67263 144.83849 382 ft 11 kts 170°
2026-05-07 21:44 -37.67396 144.83876 376 ft 23 kts 171°
2026-05-07 21:44 -37.67553 144.83907 375 ft 22 kts 172°
2026-05-07 21:44 -37.67702 144.83932 366 ft 21 kts 172°
2026-05-07 21:45 -37.67838 144.83984 364 ft 20 kts 140°
2026-05-07 21:45 -37.67875 144.84050 368 ft 7 kts 107°
2026-05-07 21:45 -37.67875 144.84119 367 ft 8 kts 72°
2026-05-07 21:45 -37.67839 144.84163 371 ft 7 kts 15°
2026-05-07 21:46 -37.67788 144.84168 369 ft 7 kts 358°
2026-05-07 21:46 -37.67735 144.84161 371 ft 8 kts 352°
2026-05-07 21:46 -37.67678 144.84150 372 ft 9 kts 351°
2026-05-07 21:46 -37.67613 144.84137 374 ft 10 kts 351°
2026-05-07 21:47 -37.67543 144.84129 380 ft 9 kts 18°
2026-05-07 21:47 -37.67504 144.84181 377 ft 9 kts 70°
2026-05-07 21:47 -37.67481 144.84257 379 ft 9 kts 41°
2026-05-07 21:47 -37.67425 144.84297 382 ft 10 kts 13°
2026-05-07 21:48 -37.67352 144.84297 384 ft 11 kts 352°
2026-05-07 21:48 -37.67269 144.84282 385 ft 13 kts 351°
2026-05-07 21:48 -37.67179 144.84265 387 ft 14 kts 351°
2026-05-07 21:48 -37.67080 144.84246 389 ft 14 kts 352°
2026-05-07 21:49 -37.66989 144.84229 391 ft 14 kts 351°
2026-05-07 21:49 -37.66893 144.84211 394 ft 14 kts 351°
2026-05-07 21:49 -37.66803 144.84194 395 ft 11 kts 352°
2026-05-07 21:49 -37.66748 144.84184 396 ft 6 kts 351°
2026-05-07 21:50 -37.66715 144.84189 397 ft 3 kts 43°
2026-05-07 21:50 -37.66703 144.84214 398 ft 4 kts 75°
2026-05-07 21:50 -37.66695 144.84260 398 ft 7 kts 81°
2026-05-07 21:50 -37.66685 144.84340 401 ft 11 kts 81°
2026-05-07 21:51 -37.66676 144.84416 399 ft 9 kts 81°
2026-05-07 21:51 -37.66670 144.84470 403 ft 4 kts 82°
2026-05-07 21:51 -37.66667 144.84494 403 ft 1 kts 83°
2026-05-07 21:51 -37.66667 144.84504 403 ft 1 kts 105°
2026-05-07 21:52 -37.66674 144.84521 404 ft 2 kts 135°
2026-05-07 21:52 -37.66694 144.84531 402 ft 5 kts 169°
2026-05-07 21:52 -37.66718 144.84536 401 ft 1 kts 171°
2026-05-07 21:52 -37.66730 144.84538 398 ft 0 kts 171°
2026-05-07 21:53 -37.66738 144.84540 398 ft 0 kts 172°
2026-05-07 21:53 -37.66739 144.84540 398 ft 0 kts 172°